weather.gov     
National Weather Service

Regional Weather Roundup
NWS Homepage
This page is being discontinued on March 12, 2014.
The same data is available at this site. Please update your bookmarks.
Thank you, and we apologize for the inconvenience.
Please send an email to SR-SRH.Webmaster@noaa.gov with any concerns.


Current Version
Previous Version:    01  02  03  04  05  06  07  08  09  10  11  12  13  14  15  16  17  18  19  20  21  22  23  24  25  26  27  28  29  30  
   31  32  33  34  35  36  37  38  39  40  41  42  43  44  45  46  47  48  49  50  51  52  53  54  
[Printable]
225
ASUS43 KTOP 241459
RWRKS

WEATHER ROUNDUP FOR KANSAS
NATIONAL WEATHER SERVICE GOODLAND KS
1000 AM CDT FRI OCT 24 2014

NOTE:  "FAIR" INDICATES FEW OR NO CLOUDS BELOW 12,000 FEET WITH NO
SIGNIFICANT WEATHER AND/OR OBSTRUCTIONS TO VISIBILITY.

KSZ001>006-013>018-027>032-041>047-241600-
NORTHWEST KANSAS

CITY           SKY/WX    TMP DP  RH WIND       PRES   REMARKS
GOODLAND       SUNNY     62  44  51 W8        30.09R
HAYS           CLOUDY    57  52  82 SW6       30.04R
HILL CITY      CLOUDY    56  52  86 W7        30.02R
RUSSELL        CLOUDY    60  57  89 SW12      30.02R
$$

KSZ061>065-074>080-084>089-241600-
SOUTHWEST KANSAS

CITY           SKY/WX    TMP DP  RH WIND       PRES   REMARKS
DODGE CITY     MOSUNNY   59  55  87 SW6       30.09R
ELKHART          N/A     62  49  62 W8          N/A
GARDEN CITY    MOSUNNY   54  52  93 W6        30.09R
GREAT BEND     PTSUNNY   61  57  88 SW7       30.05S
LIBERAL        SUNNY     59  52  77 W3        30.13R
$$

KSZ066>073-081>083-090>101-241600-
SOUTHEAST KANSAS

CITY           SKY/WX    TMP DP  RH WIND       PRES   REMARKS
CHANUTE        MOSUNNY   62  57  83 SW13      30.09S
COFFEYVILLE    SUNNY     62  56  80 S12       30.11R
HUTCHINSON     CLOUDY    61  59  93 S7        30.06S FOG
NEWTON         PTSUNNY   61  55  82 S13       30.08S
PARSONS        SUNNY     63  57  81 SW9       30.12R
WICHITA INTL   PTSUNNY   62  58  86 S12       30.07S FOG
WICHITA JABRA  MOSUNNY   62  58  86 S14       30.07S
WINFIELD       SUNNY     63  58  83 S10       30.10S
$$

KSZ007>012-019>026-033>040-048>060-102>105-241600-
NORTHEAST KANSAS

CITY           SKY/WX    TMP DP  RH WIND       PRES   REMARKS
CONCORDIA      CLOUDY    62  61  96 SW9       30.00R FOG
EMPORIA        PTSUNNY   60  58  92 S12       30.05F
LAWRENCE       CLOUDY    59  57  93 S6        30.05S FOG
MANHATTAN      PTSUNNY   63  60  90 SW12      30.01S
OLATHE IND     PTSUNNY   58  57  97 S10       30.07R FOG
OLATHE EXE     PTSUNNY   58  57  97 S10       30.05F
SALINA         CLOUDY    62  59  90 S10       30.03S FOG
TOPEKA BILLARD CLOUDY    63  60  90 S8        30.03F
TOPEKA FORBES  CLOUDY    61  59  93 S13       30.03F FOG
$$




U.S. Dept. of Commerce
NOAA National Weather Service
1325 East West Highway
Silver Spring, MD 20910
E-mail: w-nws.webmaster@noaa.gov
Page last modified: May 16, 2007
NATIONAL WEATHER SERVICE: for Safety, for Work, for Fun - FOR LIFE